Location: Alando
(42.3054°N, 9.2895°E)
Time: 01:57:34
(UTC+00:00)

Cosmos 2058 - Pass Details

Date: 09 April 2020
Orbit: 563 x 583 km, 82.5° (Epoch: 02 June)

Event Time Altitude Azimuth Distance (km) Brightness Sun altitude
Rises 19:15:23 0° 6° (N) 2,773 6.7 -14.4°
Reaches altitude 10° 19:18:03 10° 24° (NNE) 1,874 5.6 -14.8°
Maximum altitude 19:21:09 20° 72° (ENE) 1,331 4.4 -15.3°
Enters shadow 19:21:21 20° 77° (ENE) 1,334 4.3 -15.4°
